Showing default

RUZAEVKA-390, 61766

Orbit data source: Space-Track

RUZAEVKA-390, 61766 is a payload satellite owned by Saransk PT (CIS) in SSO that was launched on Mon, 04 Nov 2024 UTC via a SOYUZ-2-1B launch vehicle from the Vostochny Cosmodrome (VOSTO). Payload-class satellites include a variety of spacecraft equipped with specific instruments for various scientific and technological missions. These include communications satellites like Starlink; space stations such as the ISS; scientific satellites like the Hubble; Earth observation satellites from companies like Planet Labs, Umbra, and HawkEye 360; GPS; miniature CubeSats for education and research; and military/defense satellites.

Loading next visibility...
Identifier
61766, 2024-199AH
Orbit
SSO
Country
Flag of CISCIS
Related business
Manufacturer
Yugo-Zapad. GU
Mission
Operational Amateur Technology
Bus & Motor
CUBESAT 3U, Unknown motor
Mass
5 kg wet, 5 kg dry
Launch date (UTC)
2024-11-04 (10 months ago)
Launch vehicle
SOYUZ-2-1B
Launch site
Vostochny Cosmodrome (VOSTO)
Object type
Payload
Rocket body
Debris
Shape & HBR
Box, 0.1 m
Radar Cross Section
0.035 m², Small (<0.1 m²)

Expand to show TLE details & history
Last TLE update: 14 hours ago

TLE from 14 hours ago
0 RUZAEVKA-390
1 61766U 24199AH  25260.24942904  .00038242  00000-0  75791-3 0  9991
2 61766  97.3350 130.9773 0009487 157.0528 203.1147 15.46905261 92391
Epoch: 2025-09-17T05:59Z
TLE epoch observation values (Epoch: 2025-09-17T05:59:10.669Z)
Latitude
-0.00005°
Longitude
44.75477°
Altitude
434.853 km
Speed
7.647 km/s
True Right ascension
08h 43m 54s
True Declination
0° 00' 00"
Sunlit
Object was in daylight at epoch
Visualization orbit readout
Latitude
Unknown
Longitude
Unknown
Altitude
Unknown
Speed
Unknown
Apparent Right ascension
Unknown
Apparent Declination
Unknown
Sunlit
N/A
Visualization observer readout
Local Sidereal Time
13:09:20
Azimuth
Unknown
Elevation
Unknown
Doppler factor
Unknown
Orbital elements
Apogee altitude
429.165 km
Perigee altitude
416.261 km
Semi-major axis
6,800.85 km
Eccentricity
0.00095
Inclination
97.335°
RAAN
130.9773°
Arg. of periapsis
157.0528°
True anomaly
203.07207°
Mean anomaly
203.1147°
Eccentric anomaly
203.09338°
Mean motion
3.86989 °/min
Orbital period
93.03 mins
BSTAR
0.00075791
Loading maneuver chart data...
Computing Atmospheric mass density...
Loading historical data...
Loading historical data...
Loading historical data...
Loading historical data...
Loading historical data...
Loading historical data...
Loading historical data...

Documentation

Showing up to 5 results
|